FW0323 Weather Reports


time (UTC)temp
C
wind
direction
speed
KPH
gust
KPH
rain 1hr
cm
rain 24hr
cm
rain mn
cm
humidity
%
barometer
mb
20260506014522 15 120 0.0 1.6 0.03 0.05 0.05 88 1010.7
20260506013021 15 120 0.0 1.6 0.03 0.05 0.05 88 1010.6
20260506011524 15 205 0.0 1.6 0.03 0.05 0.05 90 1010.6
20260506010021 15 241 0.0 3.2 0.00 0.03 0.03 89 1010.8
20260506004525 15 265 0.0 1.6 0.00 0.03 0.03 92 1010.4
20260506003021 15 158 0.0 4.8 0.03 0.03 0.03 91 1010.3
20260506001519 16 290 0.0 0.0 0.03 0.03 0.03 91 1009.5
20260506000021 16 290 0.0 1.6 0.03 0.03 0.03 88 1008.9
20260505234515 17 108 0.0 12.9 0.03 0.03 0.03 81 1008.5
20260505233014 18 60 0.0 4.8 0.00 0.00 0.00 73 1009.3
20260505231513 19 264 0.0 3.2 0.00 0.00 0.00 67 1009.2
20260505230021 20 285 6.4 17.7 0.00 0.00 0.00 59 1009.4
20260505224512 20 255 4.8 12.9 0.00 0.00 0.00 53 1008.1
20260505223014 20 68 3.2 14.5 0.00 0.00 0.00 53 1006.7
20260505221511 21 221 4.8 16.1 0.00 0.00 0.00 52 1006.5
20260505220010 21 287 6.4 27.4 0.00 0.00 0.00 51 1006.2
20260505214510 22 134 8.0 22.5 0.00 0.00 0.00 49 1006.1
20260505213009 22 213 6.4 20.9 0.00 0.00 0.00 50 1006.1
20260505211508 21 205 8.0 14.5 0.00 0.00 0.00 51 1006.0
20260505210007 22 141 4.8 14.5 0.00 0.00 0.00 49 1005.9
20260505204506 22 148 4.8 24.1 0.00 0.00 0.00 50 1006.1
20260505203005 22 111 4.8 16.1 0.00 0.00 0.00 48 1006.1
20260505201505 23 152 4.8 19.3 0.00 0.00 0.00 47 1006.0
20260505200001 23 202 9.7 32.2 0.00 0.00 0.00 45 1006.4
20260505194621 23 109 4.8 22.5 0.00 0.00 0.00 45 1006.3
20260505193059 23 98 3.2 17.7 0.00 0.00 0.00 45 1006.6
20260505191557 23 117 6.4 20.9 0.00 0.00 0.00 45 1006.7
20260505190053 24 259 6.4 17.7 0.00 0.00 0.00 45 1007.0
20260505184550 24 211 4.8 22.5 0.00 0.00 0.00 44 1007.2
20260505183049 23 167 8.0 17.7 0.00 0.00 0.00 46 1007.3
20260505181552 24 183 6.4 19.3 0.00 0.00 0.00 45 1007.6
20260505180046 23 111 11.3 24.1 0.00 0.00 0.00 47 1007.6
20260505174552 24 146 4.8 22.5 0.00 0.00 0.00 46 1007.6
20260505173043 25 132 6.4 14.5 0.00 0.00 0.00 44 1007.8
20260505171541 25 158 6.4 17.7 0.00 0.00 0.00 42 1008.0
20260505170039 26 176 4.8 20.9 0.00 0.00 0.00 39 1008.2
20260505164535 25 257 6.4 14.5 0.00 0.00 0.00 40 1008.6
20260505163031 25 180 6.4 17.7 0.00 0.00 0.00 40 1008.9
20260505161529 23 112 4.8 17.7 0.00 0.00 0.00 45 1009.3
20260505153020 22 207 8.0 20.9 0.00 0.00 0.00 44 1010.0
20260505151520 22 187 3.2 12.9 0.00 0.00 0.00 46 1010.3
20260505130112 17 251 3.2 11.3 0.00 0.00 0.00 53 1011.0
20260505124601 17 122 3.2 8.0 0.00 0.00 0.00 53 1010.7
20260505123052 16 67 1.6 6.4 0.00 0.00 0.00 54 1010.5
20260505121551 16 250 0.0 8.0 0.00 0.00 0.00 56 1010.7
20260505120058 15 346 3.2 9.7 0.00 0.00 0.00 59 1010.7
20260505114542 14 234 1.6 12.9 0.00 0.00 0.00 61 1010.8
20260505113044 13 193 0.0 9.7 0.00 0.00 0.00 68 1011.1
20260505111540 12 115 0.0 3.2 0.00 0.00 0.00 72 1010.9
20260505101533 10 133 0.0 1.6 0.00 0.00 0.00 76 1011.2
20260505100034 10 143 0.0 1.6 0.00 0.00 0.00 75 1010.9
20260505094535 9 139 0.0 4.8 0.00 0.00 0.00 76 1011.0
20260505093031 9 201 0.0 3.2 0.00 0.00 0.00 75 1011.1
20260505091531 9 199 0.0 0.0 0.00 0.00 0.00 76 1011.1
20260505090035 9 199 0.0 1.6 0.00 0.00 0.00 76 1011.1
20260505084625 9 52 0.0 1.6 0.00 0.00 0.00 75 1011.2
20260505083025 9 52 0.0 1.6 0.00 0.00 0.00 75 1011.3
20260505081534 10 276 0.0 1.6 0.00 0.00 0.00 73 1011.5
20260505080021 10 276 0.0 1.6 0.00 0.00 0.00 72 1011.5
20260505074519 11 155 0.0 3.2 0.00 0.00 0.00 70 1011.3
20260505073022 11 8 0.0 1.6 0.00 0.00 0.00 69 1011.3
20260505071539 11 299 0.0 3.2 0.00 0.00 0.00 67 1011.1
20260505070017 11 65 0.0 4.8 0.00 0.00 0.00 68 1011.2
20260505064522 11 150 0.0 3.2 0.00 0.00 0.00 71 1011.2
20260505063015 10 226 0.0 4.8 0.00 0.00 0.00 72 1011.2
20260505061515 10 188 0.0 3.2 0.00 0.00 0.00 72 1011.1
20260505060012 10 155 0.0 0.0 0.00 0.00 0.00 70 1011.1
20260505054508 11 155 0.0 0.0 0.00 0.00 0.00 68 1011.1
20260505053007 11 155 0.0 0.0 0.00 0.00 0.00 65 1011.2
20260505051508 12 195 0.0 1.6 0.00 0.00 0.00 64 1011.2
20260505041600 11 224 0.0 6.4 0.00 0.00 0.00 66 1010.8
20260505040105 11 85 0.0 4.8 0.00 0.00 0.00 66 1010.8
20260505034555 10 333 1.6 8.0 0.00 0.00 0.00 69 1010.6
20260505033055 8 128 0.0 3.2 0.00 0.00 0.00 77 1010.6
20260505031556 8 208 0.0 1.6 0.00 0.00 0.00 78 1010.7
20260505030056 9 209 0.0 0.0 0.00 0.00 0.00 77 1010.3
20260505024653 10 209 0.0 1.6 0.00 0.00 0.00 76 1010.4
20260505023057 10 209 0.0 1.6 0.00 0.00 0.00 74 1010.4
20260505021554 10 163 0.0 3.2 0.00 0.00 0.00 75 1010.4
20260505020056 10 129 0.0 1.6 0.00 0.00 0.00 71 1010.1